CAPE
2363 2462 2443 2257 1993 1801 1582 1490 1242 1043 1031 898 1319 1324 1301 1228 1293 1112 939 844 769 820 923 858 707 662 706 712 686 680 646 738 919 831 800 899 959 1026 1210 1197 1062 990 1139 1037 933 1058 613 650 713 757 829 812 853 712 867 777 711 876 957 851 714 464 432 389 375 124 71 314 330 344 512 588 671 659 714 702 572 565 493 572 674 743 770 727 836
2274 2394 2362 2197 1920 1725 1498 1246 1051 912 964 1045 947 1214 991 1211 1174 959 829 781 799 838 754 612 674 778 765 775 842 835 700 740 761 771 814 839 835 880 939 1065 1138 1071 1194 1143 1096 944 701 767 766 778 935 862 768 812 672 624 805 1050 1032 990 844 718 696 499 392 53 77 296 314 333 336 416 357 517 385 499 613 631 640 561 705 738 714 669 636
2205 2208 2084 1971 1607 1389 1328 976 816 978 802 526 937 1224 1013 1141 1006 958 864 862 869 990 1157 1277 1270 1054 1229 853 751 591 611 615 664 709 688 753 780 862 852 899 1061 1011 1026 970 1044 859 716 731 766 664 899 916 848 714 836 733 948 1122 1032 1002 1079 824 709 641 496 692 23 347 124 155 243 245 335 189 260 344 512 557 625 674 792 822 1005 655 600
1982 2020 2103 1717 1336 1152 866 1052 853 686 747 789 952 1114 1231 1160 1087 1038 1126 1077 1088 1384 1300 1154 1082 903 732 646 490 512 619 551 405 486 658 683 628 822 965 869 1021 992 1011 982 945 904 979 881 855 781 731 876 752 777 954 1066 1102 1146 1110 1139 1002 632 564 592 638 488 93 307 250 222 112 138 258 154 193 255 234 408 283 278 561 808 725 970 566
2124 2229 1991 1669 1017 714 826 903 639 853 942 865 900 977 1057 1292 1248 1246 1295 1215 1220 1185 1022 934 796 567 427 130 165 255 168 0 14 154 426 677 595 587 574 448 786 1064 1032 906 1008 1121 1038 1044 862 812 729 738 1093 944 935 1049 972 1088 1127 1158 1004 747 647 498 597 560 240 533 278 16 27 228 262 162 235 118 101 221 420 319 546 763 1019 810 746
2000 2065 1908 1357 988 690 724 938 793 720 703 734 702 711 1169 1412 1384 1302 1190 1094 1159 1056 780 641 536 72 178 334 359 275 13 10 43 130 448 187 301 306 326 187 318 350 938 961 1052 959 905 880 916 1056 948 1003 1190 1165 1095 1120 954 1083 1194 1175 876 664 603 560 562 554 561 636 1003 1413 600 101 335 164 43 0 73 152 185 494 423 435 389 553 283
1488 1555 1716 1399 1063 879 647 530 689 604 718 642 892 986 1307 1448 1329 1179 1017 1004 1052 898 552 431 324 396 430 419 404 384 122 345 13 0 4 78 168 330 350 71 105 88 218 524 756 717 626 775 905 930 937 1265 1121 1276 1093 1144 1134 1182 1171 1175 866 619 594 415 492 628 518 859 906 896 750 452 359 297 6 0 0 0 0 40 43 223 309 190 97
1273 1416 1666 1430 897 672 640 706 598 604 795 945 1149 1268 1403 1351 1264 1074 1007 1030 931 748 407 146 375 478 460 431 581 592 478 148 95 0 2 34 363 379 142 0 2 112 124 161 262 283 539 804 857 926 866 968 1064 1241 1219 1143 1054 1023 1116 933 897 812 705 511 642 706 788 779 831 833 380 373 361 30 39 0 0 0 0 0 0 0 0 0 0
978 1123 1088 656 636 658 679 701 537 691 1015 1236 1316 1341 1393 1312 1249 1011 929 906 850 688 326 398 463 423 394 420 629 806 454 50 0 0 0 2 18 51 59 20 11 5 0 114 87 145 197 156 296 141 328 831 905 838 845 947 794 728 757 833 930 617 675 572 501 684 823 784 734 729 557 509 565 542 156 0 0 0 0 0 0 0 0 0 0
1126 892 681 666 612 711 751 568 638 748 968 1108 1253 1314 1318 1318 1221 923 737 827 781 636 431 489 435 360 344 438 635 601 533 336 54 0 0 0 59 131 2 0 0 8 10 42 3 98 361 181 112 140 406 650 628 836 936 759 639 539 816 847 934 811 730 487 395 672 741 836 747 618 546 460 444 158 34 0 0 0 0 0 0 1 1 1 0
1368 1205 937 603 330 603 726 638 598 756 752 946 1081 1310 1294 1268 1036 798 682 764 701 474 356 392 400 327 306 414 533 600 603 402 236 32 10 102 6 17 0 0 18 15 58 26 12 78 194 175 51 50 33 204 238 730 530 545 631 704 881 666 883 727 580 618 471 374 413 713 767 586 532 433 375 21 35 6 0 0 0 2 0 1 3 0 0
1205 1075 781 642 479 695 726 678 717 680 832 906 1168 1279 1212 1085 888 627 551 640 521 198 85 181 259 100 124 323 439 546 609 160 2 4 57 47 0 52 80 21 4 22 2 0 0 87 40 23 24 0 2 8 18 92 75 645 804 1081 1031 956 854 727 748 641 490 470 395 308 474 507 586 529 0 26 33 22 0 2 2 2 6 5 0 0 0
969 927 893 947 552 568 755 893 799 718 936 923 1071 1009 829 919 774 533 515 506 388 156 105 327 101 128 152 359 517 384 109 15 9 12 37 32 20 146 114 2 36 70 24 1 0 10 68 41 29 0 0 0 0 0 300 449 592 805 801 762 815 788 715 585 294 372 178 94 44 39 136 500 406 404 414 96 31 0 1 5 4 0 0 0 0
984 969 926 954 851 543 930 908 888 831 1006 986 878 698 657 792 726 564 593 557 379 265 188 260 134 216 342 470 630 367 157 77 46 13 32 8 85 194 90 2 44 34 0 0 1 0 173 121 16 0 0 0 0 0 0 320 480 585 654 703 660 664 766 722 593 514 344 87 55 74 103 78 306 393 422 222 156 10 0 0 0 0 0 0 0
839 849 908 886 764 678 798 890 790 788 738 897 760 584 707 860 769 636 610 616 401 295 293 320 312 400 394 568 495 357 284 221 99 60 40 19 49 3 29 8 33 3 0 3 0 11 35 0 0 0 0 0 0 0 0 0 298 500 460 466 530 645 741 717 638 612 537 308 61 22 72 10 373 339 292 208 171 8 0 0 0 0 0 0 0
862 903 887 744 619 591 810 846 827 806 811 848 757 632 594 708 711 622 594 640 482 367 374 381 365 394 427 776 487 418 317 94 103 47 85 4 7 108 120 12 0 0 0 0 8 0 0 0 0 0 0 0 0 0 0 0 0 152 326 418 378 345 192 168 151 211 523 414 21 1 27 40 8 189 194 71 63 0 0 0 0 0 0 0 0
922 822 914 764 802 822 584 628 763 804 834 836 889 764 657 608 551 537 626 675 565 480 406 404 418 467 614 823 571 398 274 97 56 119 37 20 64 4 0 0 0 0 0 0 0 0 0 0 0 0 0 0 0 0 0 0 0 0 0 0 0 0 0 0 0 0 0 0 0 0 0 0 0 0 0 26 40 49 79 2 0 0 0 0 0
924 945 930 893 1081 1204 1021 816 795 846 804 758 910 838 682 645 470 590 703 709 630 584 505 543 619 674 840 740 633 477 269 44 68 60 12 0 2 0 0 0 0 0 0 0 0 0 0 0 0 0 0 0 0 0 0 0 0 0 0 0 0 0 0 0 0 0 0 0 0 0 0 0 0 0 0 0 0 0 0 0 0 0 0 0 0
685 658 758 949 1174 1150 1000 759 773 827 823 784 697 651 626 590 646 715 774 746 676 662 807 936 964 797 836 749 692 552 213 20 3 0 0 0 0 0 0 0 0 0 0 0 0 0 0 0 0 0 0 0 0 0 0 0 0 0 0 0 0 0 0 0 0 0 0 0 0 0 0 0 0 0 0 0 0 0 0 0 0 0 0 0 0
578 558 665 890 1177 1102 1072 888 822 825 841 784 748 742 722 716 816 872 948 910 858 997 1124 1009 890 718 716 662 555 542 345 0 0 0 0 0 0 0 0 0 0 0 0 0 0 0 0 0 0 0 0 0 0 0 0 0 0 0 0 0 0 0 0 0 0 0 0 0 0 0 0 0 0 0 0 0 0 0 0 0 0 0 0 0 0
884 871 676 770 1022 977 928 924 661 648 747 746 808 833 729 749 976 839 976 978 1089 1192 1110 939 787 566 615 639 549 528 344 0 0 0 0 0 0 0 0 0 0 0 0 0 0 0 0 0 0 0 0 0 0 0 0 0 0 0 0 0 0 0 0 0 0 0 0 0 0 0 0 0 0 0 0 0 0 0 0 0 0 0 0 0 0
838 816 858 953 924 849 859 704 495 516 546 687 818 758 734 699 855 786 906 1058 1166 1120 1033 940 757 585 614 672 634 552 236 59 27 16 0 0 0 0 0 0 0 0 0 0 0 0 0 0 0 0 0 0 0 0 0 0 0 0 0 0 0 0 0 0 0 0 0 0 0 0 0 0 0 0 0 0 0 0 0 0 0 0 0 0 0
746 708 606 641 804 764 586 468 400 426 413 396 583 694 707 678 637 622 731 930 1053 1037 1006 975 888 667 619 751 676 592 523 252 44 96 0 0 0 0 0 0 0 0 0 0 0 0 0 0 0 0 0 0 0 0 0 0 0 0 0 0 0 0 0 0 0 0 0 0 0 0 0 0 0 0 0 0 0 0 0 0 0 0 0 0 0
630 602 568 508 488 481 452 258 355 344 397 440 482 564 659 650 627 665 622 744 874 904 832 856 937 874 773 789 728 586 685 391 172 308 135 0 0 0 0 0 0 0 0 0 0 0 0 0 0 0 0 0 0 0 0 0 0 0 0 0 0 0 0 0 0 0 0 0 0 0 0 0 0 0 0 0 0 0 0 0 0 0 0 0 0
491 363 358 381 306 282 177 208 179 217 384 432 528 671 648 723 632 468 172 224 512 511 595 553 576 774 740 655 584 677 607 712 370 480 186 215 69 0 0 0 0 0 0 0 0 0 0 0 0 0 0 0 0 0 0 0 0 0 0 0 0 0 0 0 0 0 0 0 0 0 0 0 0 0 0 0 0 0 0 0 0 0 0 0 0
412 326 206 204 262 278 236 183 129 304 267 480 275 614 681 514 424 412 352 444 506 456 101 489 543 627 623 593 600 556 462 734 651 452 223 273 245 119 12 1 0 0 0 0 0 0 0 0 0 0 0 0 0 0 0 0 0 0 0 0 0 0 0 0 0 0 0 0 0 0 0 0 0 0 0 0 0 0 0 0 0 0 0 0 0
7 83 73 75 108 321 321 378 312 354 300 340 303 349 361 223 291 329 423 464 429 636 546 515 466 679 364 488 331 298 290 437 846 926 425 356 315 208 146 143 58 1 8 0 0 0 0 0 0 0 0 0 0 0 0 0 0 0 0 0 0 0 0 0 0 0 0 0 0 0 0 0 0 0 0 0 0 0 0 0 0 0 0 0 0
0 0 0 100 134 138 112 273 198 176 284 348 493 248 341 336 240 228 382 409 373 262 509 489 470 508 534 360 285 232 326 405 530 535 703 716 412 308 278 264 218 172 21 0 0 0 0 0 0 0 0 0 0 0 0 0 0 0 0 0 0 0 0 0 0 0 0 0 0 0 0 0 0 0 0 0 0 0 0 0 0 0 0 0 0
0 0 93 104 64 29 9 3 3 12 0 54 88 189 275 32 61 272 242 234 32 256 226 59 178 218 443 406 437 405 441 358 585 708 842 801 839 552 428 364 254 248 0 0 0 0 0 0 0 0 0 0 0 0 0 0 0 0 0 0 0 0 0 0 0 0 0 0 0 0 0 0 0 18 0 0 0 0 0 0 0 0 0 0 0
11 19 17 7 6 1 0 0 0 0 0 13 0 0 12 1 0 0 0 35 0 124 172 231 269 237 125 346 454 554 575 449 550 745 885 813 735 599 554 463 499 221 0 0 0 0 0 0 0 0 0 0 0 0 0 0 0 0 0 0 0 0 0 0 0 0 0 0 0 0 6 183 27 0 0 0 0 0 0 0 0 0 0 0 0
127 120 100 16 0 0 0 0 0 0 0 0 0 1 0 0 0 8 0 0 8 132 15 0 54 356 382 387 550 668 583 644 703 618 727 769 679 797 721 617 631 431 148 147 419 122 53 8 0 0 0 0 0 0 0 0 0 0 0 0 0 0 0 0 0 0 0 0 0 0 0 0 0 0 0 0 0 0 0 0 0 0 0 0 0
98 90 63 20 16 0 0 0 0 0 0 0 0 0 0 0 0 0 0 0 0 0 0 0 123 238 163 188 287 491 540 685 757 639 643 752 785 828 769 560 598 526 420 86 639 567 264 9 0 0 0 0 0 0 0 0 0 0 0 0 0 0 0 0 0 0 0 0 0 0 0 0 0 0 0 0 0 0 0 0 0 0 0 0 0
40 45 10 20 16 11 2 0 0 0 0 0 0 0 0 0 0 0 0 0 0 0 0 0 0 0 0 0 175 149 393 431 421 380 422 421 480 623 789 715 632 579 518 524 592 798 669 459 358 0 0 0 0 0 0 0 0 0 0 0 61 15 6 3 0 0 167 0 0 0 0 0 0 0 0 0 0 0 0 0 0 0 0 0 0
6 5 5 7 6 4 4 1 1 2 8 6 7 0 0 0 0 0 0 0 0 0 0 0 0 0 0 0 0 0 32 97 289 227 350 552 667 806 828 682 632 579 592 614 649 717 658 562 462 249 0 0 0 0 0 0 0 0 0 0 396 649 498 120 0 0 140 308 0 0 0 0 0 0 0 0 0 0 1 1 0 0 0 0 0
1 2 8 8 11 7 8 5 1 0 0 0 0 0 0 0 0 0 0 0 0 0 0 0 0 0 0 0 0 0 0 0 0 0 4 22 368 724 815 862 803 772 790 722 711 760 756 724 622 528 472 416 70 0 0 0 0 0 0 0 301 469 672 677 596 518 425 276 0 235 372 427 408 325 287 16 0 0 0 1 3 1 0 0 1
1 0 1 0 0 12 14 7 0 0 0 0 0 0 0 0 0 0 0 0 0 3 4 3 2 0 0 0 0 0 0 0 0 0 0 0 0 6 375 851 810 819 801 776 850 917 908 833 760 681 670 608 600 545 468 314 258 0 0 0 0 221 472 573 559 675 605 388 113 118 289 324 369 342 60 0 0 0 0 11 1 25 0 0 0
2 5 6 4 3 0 0 1 0 0 0 0 0 0 4 0 0 0 0 0 1 0 0 0 0 0 0 0 0 0 0 0 0 0 0 0 0 0 0 11 429 775 788 788 780 910 981 954 871 790 730 694 666 580 469 382 259 0 0 0 0 0 0 323 481 513 402 390 395 115 0 216 0 0 0 0 0 0 0 61 36 0 0 2 0
12 13 7 3 2 0 0 0 0 0 0 0 0 0 0 0 1 2 5 9 3 0 0 0 0 0 0 0 0 0 0 0 0 0 0 0 0 0 0 0 0 0 8 449 875 887 938 921 859 805 723 679 664 634 574 452 362 390 346 134 0 0 0 0 279 430 426 391 266 4 202 0 0 0 0 0 98 0 26 48 63 114 2 2 155
5 3 0 0 0 0 0 0 0 0 0 0 0 0 0 0 0 0 0 0 0 0 0 0 0 0 0 0 0 0 0 0 0 0 0 0 0 0 0 0 0 0 0 0 0 372 809 892 854 847 805 713 650 653 628 606 580 552 535 523 497 448 160 144 0 118 0 0 0 237 328 53 3 15 92 276 188 151 154 113 84 0 11 0 0
0 0 0 0 0 0 0 0 0 0 0 0 0 0 0 0 0 0 0 0 0 0 0 0 0 0 0 0 0 0 0 0 0 0 0 0 0 0 0 0 0 0 0 0 0 0 0 164 779 874 875 819 761 685 657 625 584 539 491 443 428 441 474 438 423 400 366 297 93 0 0 0 0 326 340 294 284 219 192 190 1 0 0 0 0
2 0 0 0 0 0 0 1 0 0 0 0 0 0 0 0 0 0 0 0 0 0 0 0 0 0 0 0 0 0 0 0 0 0 0 0 0 0 0 0 0 0 0 0 0 0 0 0 0 125 670 830 796 749 673 615 600 589 546 509 483 454 453 455 449 482 462 406 347 225 0 0 128 309 331 327 252 204 189 148 125 2 0 0 0
0 0 1 0 1 0 1 2 2 0 2 0 0 0 0 0 0 1 1 0 0 0 0 0 0 0 0 0 0 0 0 0 0 0 0 0 0 0 0 0 0 0 0 0 0 0 0 0 0 0 168 531 695 733 690 680 692 664 638 590 518 466 390 0 0 424 432 367 328 285 230 0 279 228 259 186 174 153 140 131 113 0 0 0 0
0 0 2 1 1 2 3 3 2 1 1 1 0 0 0 0 0 0 0 0 0 0 0 0 0 0 0 0 0 0 0 0 0 0 0 0 0 0 0 0 0 0 0 0 0 0 0 0 0 0 0 150 521 711 686 693 696 669 605 550 462 428 384 302 0 372 356 105 338 220 15 102 58 62 59 106 79 154 171 76 0 0 0 0 0
0 0 0 0 0 0 0 0 0 0 0 0 0 0 1 1 2 2 0 0 0 0 0 0 0 0 0 0 0 0 0 0 0 0 0 0 0 0 0 0 0 0 0 0 0 0 0 0 0 0 0 84 460 641 641 623 605 546 474 464 478 450 478 486 497 374 315 258 31 1 28 58 24 60 97 82 108 183 170 0 0 0 0 0 0
1 2 1 0 0 0 0 0 0 0 0 0 0 0 0 0 0 0 0 0 0 0 0 0 0 0 0 0 0 0 0 0 0 0 0 0 0 0 0 0 0 0 0 0 0 0 0 0 0 0 0 64 411 619 559 572 514 466 484 444 384 371 410 412 452 422 304 81 1 0 0 0 0 67 90 50 35 48 115 5 0 0 0 0 0
0 0 0 0 0 0 0 0 0 0 0 0 0 0 0 0 0 0 0 0 0 0 0 0 0 0 0 0 0 0 0 0 0 0 0 0 0 0 0 0 0 0 0 0 0 0 0 0 0 0 0 0 86 394 469 478 497 455 432 300 213 303 383 400 427 105 15 14 0 0 0 0 0 0 0 0 0 128 117 0 0 0 0 0 0
0 0 0 0 0 0 0 0 0 0 0 0 0 0 0 0 0 0 0 0 0 0 0 0 0 0 0 0 0 0 0 0 0 0 0 0 0 0 0 0 0 0 0 0 0 0 0 0 0 0 0 0 14 199 297 324 379 288 214 127 133 217 288 174 34 28 148 89 0 0 0 0 0 0 0 0 1 12 0 0 0 0 0 0 0
0 0 0 0 0 0 0 0 0 0 0 0 0 0 0 0 0 0 0 0 0 0 0 0 0 0 0 0 0 0 0 0 0 0 0 0 0 0 0 0 0 0 0 0 0 0 0 0 0 0 0 0 0 135 190 241 295 266 230 204 155 122 157 181 45 0 0 0 0 0 0 0 0 0 0 0 0 0 0 0 0 0 0 0 0
0 0 0 0 0 0 0 0 0 0 0 0 0 0 0 0 0 0 0 0 0 0 0 0 0 0 0 0 0 0 0 0 0 0 0 0 0 0 0 0 0 0 0 0 0 0 0 0 0 0 0 0 0 0 5 82 97 305 314 191 94 0 5 6 125 0 2 3 0 2 0 34 0 0 0 0 0 0 0 0 0 0 0 0 0
0 0 0 0 0 0 0 0 0 0 0 0 0 0 0 0 0 0 0 0 0 0 0 0 2 2 2 2 2 0 0 0 0 0 0 0 0 0 0 0 0 0 0 0 0 0 0 0 0 0 0 0 0 0 0 0 0 43 138 33 0 0 0 0 0 0 10 0 0 14 6 0 0 1 0 0 0 0 0 0 0 0 0 0 0
0 0 0 0 0 0 0 0 2 2 0 0 0 0 0 0 0 0 0 0 0 0 2 4 3 6 6 2 1 0 1 1 0 0 0 0 0 0 0 0 0 0 0 0 0 0 0 0 0 0 0 0 0 0 0 0 103 161 118 0 0 0 0 0 0 4 0 0 4 12 4 0 0 0 0 0 0 0 0 0 0 0 0 0 0
Wind_Speed
22 24 26 27 30 29 27 29 32 34 39 40 34 26 27 21 20 21 20 18 18 16 13 13 13 13 11 12 13 13 14 15 15 14 13 13 13 13 12 11 10 9 10 11 10 10 10 10 8 6 5 4 4 4 4 4 4 4 6 7 9 8 5 4 5 9 nan 9 8 8 10 10 9 14 11 8 7 7 8 5 4 8 8 9 7
23 23 23 26 28 29 28 32 35 39 40 40 34 23 24 19 19 20 19 18 17 15 14 12 12 13 14 13 13 15 19 22 19 16 15 14 14 13 12 12 12 11 11 11 10 10 10 10 9 7 5 5 5 5 5 5 4 4 6 7 7 8 7 6 6 nan nan 8 9 10 11 11 14 13 11 11 7 6 7 8 7 7 7 7 7
22 22 23 28 34 36 36 37 39 40 41 39 31 25 23 20 20 20 18 18 16 15 13 13 12 13 13 14 18 17 20 22 19 17 16 16 15 16 14 12 13 11 11 11 10 8 7 8 8 6 5 6 7 5 6 6 5 5 7 8 8 6 7 5 4 7 nan 9 8 13 12 12 12 13 13 9 5 6 8 6 6 8 8 7 8
25 25 30 40 45 45 39 38 40 40 38 31 25 25 22 22 23 21 18 17 17 15 15 15 17 16 16 19 19 22 23 20 19 19 18 18 16 15 13 13 12 12 11 11 10 9 7 7 7 7 6 5 7 6 6 6 6 6 6 7 8 10 8 6 3 5 nan 14 10 9 10 12 15 13 12 6 3 4 8 5 5 7 8 7 7
28 35 48 51 52 46 42 40 42 37 34 30 25 22 19 19 19 19 18 17 16 14 15 16 19 20 21 21 22 23 23 nan nan 21 19 18 17 16 15 14 13 13 11 11 10 10 8 7 7 7 7 6 6 6 6 7 7 6 8 9 8 10 9 8 5 6 9 10 13 nan nan 10 10 15 15 8 5 6 7 8 6 6 8 8 7
39 49 50 49 44 42 43 43 39 35 34 30 28 23 20 20 19 19 18 16 15 13 14 15 17 nan 20 21 21 20 nan nan nan 21 20 19 17 14 14 12 10 11 12 9 9 9 9 8 7 8 8 7 7 7 8 9 7 6 7 11 11 9 12 12 8 6 8 8 9 11 11 11 15 15 nan nan nan 7 8 9 9 8 9 9 10
45 43 48 48 41 41 42 39 36 37 33 31 31 25 24 23 23 21 18 15 14 14 15 16 16 14 15 17 19 20 23 22 nan nan nan nan 16 15 13 nan 11 nan 9 8 8 8 8 8 8 8 8 8 8 9 9 10 11 9 9 12 12 13 13 12 13 9 9 9 9 12 11 12 15 15 nan nan nan nan nan nan nan 9 11 10 nan
43 42 45 45 40 42 42 40 40 39 35 32 29 23 20 23 22 20 16 14 14 16 17 15 17 16 17 18 18 17 18 18 nan nan nan nan 16 14 13 nan nan 9 8 7 6 7 9 11 10 9 9 8 9 10 10 10 12 13 15 12 15 14 14 16 14 12 12 9 10 13 14 15 14 nan nan nan nan nan nan nan nan nan nan nan nan
44 43 43 41 41 41 41 41 41 35 28 26 20 19 17 19 18 16 15 15 15 16 16 13 16 17 18 19 19 15 16 nan nan nan nan nan nan nan nan nan nan nan nan 8 nan 8 9 10 10 10 9 11 11 10 11 13 12 12 13 14 16 15 15 15 16 13 13 12 13 13 17 16 16 15 16 nan nan nan nan nan nan nan nan nan nan
41 43 43 41 39 37 38 43 39 28 24 19 18 15 17 17 16 15 14 13 13 13 12 11 13 15 17 18 18 13 14 18 nan nan nan nan nan 13 nan nan nan nan nan nan nan nan 10 11 13 12 12 13 12 13 18 17 16 14 12 14 14 16 17 18 16 15 14 12 13 14 15 14 14 15 nan nan nan nan nan nan nan nan nan nan nan
37 38 40 38 36 36 38 37 27 21 25 30 28 22 16 12 12 13 13 12 12 11 10 12 14 14 14 13 11 11 15 17 16 nan nan 11 nan nan nan nan nan nan nan nan nan nan 9 9 nan nan nan 11 11 12 13 18 15 14 16 13 13 16 16 17 18 17 16 15 15 15 14 13 12 nan nan nan nan nan nan nan nan nan nan nan nan
37 38 38 37 35 33 34 27 21 22 24 29 32 27 18 12 13 11 9 8 8 8 nan 14 16 14 11 9 9 12 15 13 nan nan nan nan nan nan nan nan nan nan nan nan nan nan nan nan nan nan nan nan nan nan nan 10 11 13 15 15 15 14 15 18 19 18 16 14 15 14 13 13 nan nan nan nan nan nan nan nan nan nan nan nan nan
37 39 37 33 32 30 28 23 23 23 21 29 28 21 16 13 13 13 7 5 5 7 13 16 14 13 12 11 11 14 17 nan nan nan nan nan nan 10 13 nan nan nan nan nan nan nan nan nan nan nan nan nan nan nan 8 8 8 10 11 12 12 13 14 16 17 16 16 nan nan nan 14 15 14 14 16 nan nan nan nan nan nan nan nan nan nan
37 38 34 29 27 25 22 20 20 20 16 20 25 21 20 18 15 10 6 3 4 6 9 11 11 9 9 11 13 16 19 nan nan nan nan nan nan 9 nan nan nan nan nan nan nan nan 9 8 nan nan nan nan nan nan nan 8 8 9 9 9 9 10 11 13 15 16 15 nan nan nan 15 nan 15 14 14 15 13 nan nan nan nan nan nan nan nan
36 36 32 28 25 21 19 20 22 22 24 17 18 21 22 23 19 11 7 4 2 4 6 7 7 5 7 9 13 16 19 19 nan nan nan nan nan nan nan nan nan nan nan nan nan nan nan nan nan nan nan nan nan nan nan nan 9 9 9 9 8 8 10 12 13 14 14 16 nan nan nan nan 16 14 15 14 12 nan nan nan nan nan nan nan nan
31 33 32 29 25 22 23 23 22 23 23 20 20 19 19 18 15 11 9 8 5 5 5 5 4 2 7 8 11 16 17 nan 15 nan nan nan nan 12 12 nan nan nan nan nan nan nan nan nan nan nan nan nan nan nan nan nan nan 10 10 10 10 8 11 11 11 13 14 14 nan nan nan nan nan 13 12 nan nan nan nan nan nan nan nan nan nan
31 32 34 34 27 22 21 21 20 19 22 23 24 23 18 16 17 12 9 8 7 6 5 5 4 4 7 7 11 14 16 nan nan 13 nan nan nan nan nan nan nan nan nan nan nan nan nan nan nan nan nan nan nan nan nan nan nan nan nan nan nan nan nan nan nan nan nan nan nan nan nan nan nan nan nan nan nan nan nan nan nan nan nan nan nan
33 34 37 34 28 23 22 22 20 19 22 24 26 24 20 15 15 17 15 8 6 6 5 5 4 7 9 11 13 14 14 nan nan nan nan nan nan nan nan nan nan nan nan nan nan nan nan nan nan nan nan nan nan nan nan nan nan nan nan nan nan nan nan nan nan nan nan nan nan nan nan nan nan nan nan nan nan nan nan nan nan nan nan nan nan
32 30 27 23 22 21 21 21 21 21 22 22 23 22 20 19 16 17 17 11 9 9 8 8 8 10 12 15 15 13 13 nan nan nan nan nan nan nan nan nan nan nan nan nan nan nan nan nan nan nan nan nan nan nan nan nan nan nan nan nan nan nan nan nan nan nan nan nan nan nan nan nan nan nan nan nan nan nan nan nan nan nan nan nan nan
31 28 22 16 19 21 21 22 24 24 22 23 25 24 23 20 18 15 15 15 13 11 11 13 12 13 14 15 15 14 14 nan nan nan nan nan nan nan nan nan nan nan nan nan nan nan nan nan nan nan nan nan nan nan nan nan nan nan nan nan nan nan nan nan nan nan nan nan nan nan nan nan nan nan nan nan nan nan nan nan nan nan nan nan nan
28 26 23 22 23 27 27 27 27 27 24 22 21 20 17 17 15 13 15 20 19 16 15 16 17 17 18 18 19 19 20 nan nan nan nan nan nan nan nan nan nan nan nan nan nan nan nan nan nan nan nan nan nan nan nan nan nan nan nan nan nan nan nan nan nan nan nan nan nan nan nan nan nan nan nan nan nan nan nan nan nan nan nan nan nan
28 28 28 29 30 31 32 32 30 28 27 23 17 15 19 19 17 17 18 21 21 19 18 19 19 20 19 20 20 21 24 nan nan nan nan nan nan nan nan nan nan nan nan nan nan nan nan nan nan nan nan nan nan nan nan nan nan nan nan nan nan nan nan nan nan nan nan nan nan nan nan nan nan nan nan nan nan nan nan nan nan nan nan nan nan
28 30 32 32 32 31 33 34 33 30 28 28 24 22 27 25 21 21 22 19 19 18 20 22 21 20 20 20 19 19 21 22 nan nan nan nan nan nan nan nan nan nan nan nan nan nan nan nan nan nan nan nan nan nan nan nan nan nan nan nan nan nan nan nan nan nan nan nan nan nan nan nan nan nan nan nan nan nan nan nan nan nan nan nan nan
29 31 34 34 32 31 34 35 36 34 31 30 30 29 31 27 25 24 22 19 19 19 20 22 22 21 22 21 19 18 18 16 16 18 18 nan nan nan nan nan nan nan nan nan nan nan nan nan nan nan nan nan nan nan nan nan nan nan nan nan nan nan nan nan nan nan nan nan nan nan nan nan nan nan nan nan nan nan nan nan nan nan nan nan nan
31 30 31 32 33 35 35 34 33 32 33 35 31 30 31 28 27 24 22 23 22 19 21 18 17 17 20 21 19 17 17 16 14 15 15 18 nan nan nan nan nan nan nan nan nan nan nan nan nan nan nan nan nan nan nan nan nan nan nan nan nan nan nan nan nan nan nan nan nan nan nan nan nan nan nan nan nan nan nan nan nan nan nan nan nan
33 34 34 33 32 34 35 33 31 31 31 34 33 30 28 27 25 24 26 24 21 18 17 19 16 15 16 16 17 17 19 19 17 17 18 20 20 20 nan nan nan nan nan nan nan nan nan nan nan nan nan nan nan nan nan nan nan nan nan nan nan nan nan nan nan nan nan nan nan nan nan nan nan nan nan nan nan nan nan nan nan nan nan nan nan
nan nan nan nan 28 30 29 26 25 23 25 31 33 30 30 29 28 25 23 20 18 16 14 12 14 13 17 16 19 16 14 11 13 19 21 22 21 20 20 20 nan nan nan nan nan nan nan nan nan nan nan nan nan nan nan nan nan nan nan nan nan nan nan nan nan nan nan nan nan nan nan nan nan nan nan nan nan nan nan nan nan nan nan nan nan
nan nan nan 32 28 28 28 25 23 17 20 27 28 26 30 28 25 23 22 20 21 17 17 14 13 14 16 13 7 10 11 11 16 16 18 19 20 18 17 19 21 23 nan nan nan nan nan nan nan nan nan nan nan nan nan nan nan nan nan nan nan nan nan nan nan nan nan nan nan nan nan nan nan nan nan nan nan nan nan nan nan nan nan nan nan
nan nan nan 40 nan nan nan nan nan nan nan nan nan 26 27 nan nan 22 25 24 nan 17 19 nan 23 22 17 15 9 12 15 17 16 16 17 16 16 17 19 22 21 21 nan nan nan nan nan nan nan nan nan nan nan nan nan nan nan nan nan nan nan nan nan nan nan nan nan nan nan nan nan nan nan nan nan nan nan nan nan nan nan nan nan nan nan
nan nan nan nan nan nan nan nan nan nan nan nan nan nan nan nan nan nan nan nan nan 25 28 26 21 18 18 17 15 18 18 18 20 21 18 16 17 18 20 23 25 23 nan nan nan nan nan nan nan nan nan nan nan nan nan nan nan nan nan nan nan nan nan nan nan nan nan nan nan nan nan 32 nan nan nan nan nan nan nan nan nan nan nan nan nan
40 39 nan nan nan nan nan nan nan nan nan nan nan nan nan nan nan nan nan nan nan 32 nan nan nan 21 24 24 27 25 20 20 21 20 18 18 19 21 21 23 25 25 25 26 27 26 nan nan nan nan nan nan nan nan nan nan nan nan nan nan nan nan nan nan nan nan nan nan nan nan nan nan nan nan nan nan nan nan nan nan nan nan nan nan nan
nan nan nan nan nan nan nan nan nan nan nan nan nan nan nan nan nan nan nan nan nan nan nan nan 30 28 26 27 26 25 21 19 19 19 20 21 20 21 20 20 23 25 26 nan 28 27 25 nan nan nan nan nan nan nan nan nan nan nan nan nan nan nan nan nan nan nan nan nan nan nan nan nan nan nan nan nan nan nan nan nan nan nan nan nan nan
nan nan nan nan nan nan nan nan nan nan nan nan nan nan nan nan nan nan nan nan nan nan nan nan nan nan nan nan 24 24 23 23 23 23 22 22 20 20 21 21 23 25 27 26 26 28 27 27 27 nan nan nan nan nan nan nan nan nan nan nan nan nan nan nan nan nan 37 nan nan nan nan nan nan nan nan nan nan nan nan nan nan nan nan nan nan
nan nan nan nan nan nan nan nan nan nan nan nan nan nan nan nan nan nan nan nan nan nan nan nan nan nan nan nan nan nan nan nan 27 25 26 24 24 23 23 24 26 27 28 28 28 28 28 29 28 27 nan nan nan nan nan nan nan nan nan nan 34 34 36 42 nan nan 40 38 nan nan nan nan nan nan nan nan nan nan nan nan nan nan nan nan nan
nan nan nan nan nan nan nan nan nan nan nan nan nan nan nan nan nan nan nan nan nan nan nan nan nan nan nan nan nan nan nan nan nan nan nan nan 31 28 28 28 30 30 30 30 31 31 30 30 30 29 28 25 nan nan nan nan nan nan nan nan 36 39 43 41 42 42 42 40 nan 39 41 39 38 38 39 nan nan nan nan nan nan nan nan nan nan
nan nan nan nan nan nan nan nan nan nan nan nan nan nan nan nan nan nan nan nan nan nan nan nan nan nan nan nan nan nan nan nan nan nan nan nan nan nan 33 32 33 33 34 35 35 36 34 33 33 32 31 27 26 23 24 25 28 nan nan nan nan 43 46 45 43 44 45 43 41 41 42 41 40 41 nan nan nan nan nan nan nan nan nan nan nan
nan nan nan nan nan nan nan nan nan nan nan nan nan nan nan nan nan nan nan nan nan nan nan nan nan nan nan nan nan nan nan nan nan nan nan nan nan nan nan nan 38 37 37 38 38 39 39 39 37 36 35 32 31 27 25 25 26 nan nan nan nan nan nan 49 47 46 46 44 43 42 nan 43 nan nan nan nan nan nan nan nan nan nan nan nan nan
nan nan nan nan nan nan nan nan nan nan nan nan nan nan nan nan nan nan nan nan nan nan nan nan nan nan nan nan nan nan nan nan nan nan nan nan nan nan nan nan nan nan nan 41 41 40 41 40 41 39 38 36 32 29 26 26 28 33 42 44 nan nan nan nan 48 47 47 45 44 nan 44 nan nan nan nan nan nan nan nan nan nan 50 nan nan 45
nan nan nan nan nan nan nan nan nan nan nan nan nan nan nan nan nan nan nan nan nan nan nan nan nan nan nan nan nan nan nan nan nan nan nan nan nan nan nan nan nan nan nan nan nan 44 41 41 41 40 37 35 33 31 29 30 34 38 44 46 47 48 49 50 nan 50 nan nan nan 47 44 nan nan nan nan 53 54 52 50 48 nan nan nan nan nan
nan nan nan nan nan nan nan nan nan nan nan nan nan nan nan nan nan nan nan nan nan nan nan nan nan nan nan nan nan nan nan nan nan nan nan nan nan nan nan nan nan nan nan nan nan nan nan 45 43 42 41 39 38 39 39 37 38 42 47 49 50 50 48 49 52 53 54 53 nan nan nan nan nan 53 57 55 51 49 48 45 nan nan nan nan nan
nan nan nan nan nan nan nan nan nan nan nan nan nan nan nan nan nan nan nan nan nan nan nan nan nan nan nan nan nan nan nan nan nan nan nan nan nan nan nan nan nan nan nan nan nan nan nan nan nan 47 45 46 47 47 45 45 44 44 50 53 51 49 49 52 53 55 56 57 55 54 nan nan 59 59 60 59 54 50 47 44 43 nan nan nan nan
nan nan nan nan nan nan nan nan nan nan nan nan nan nan nan nan nan nan nan nan nan nan nan nan nan nan nan nan nan nan nan nan nan nan nan nan nan nan nan nan nan nan nan nan nan nan nan nan nan nan 53 53 54 53 53 50 49 49 51 53 51 49 53 nan nan 56 57 56 55 55 54 nan 60 59 57 57 55 52 50 48 46 nan nan nan nan
nan nan nan nan nan nan nan nan nan nan nan nan nan nan nan nan nan nan nan nan nan nan nan nan nan nan nan nan nan nan nan nan nan nan nan nan nan nan nan nan nan nan nan nan nan nan nan nan nan nan nan 58 59 58 55 56 54 53 52 53 50 50 56 58 nan 56 56 57 57 55 nan 55 nan nan nan 54 nan 53 52 nan nan nan nan nan nan
nan nan nan nan nan nan nan nan nan nan nan nan nan nan nan nan nan nan nan nan nan nan nan nan nan nan nan nan nan nan nan nan nan nan nan nan nan nan nan nan nan nan nan nan nan nan nan nan nan nan nan nan 61 62 59 58 59 57 56 55 53 51 55 55 54 57 58 58 nan nan nan nan nan nan nan nan 56 57 56 nan nan nan nan nan nan
nan nan nan nan nan nan nan nan nan nan nan nan nan nan nan nan nan nan nan nan nan nan nan nan nan nan nan nan nan nan nan nan nan nan nan nan nan nan nan nan nan nan nan nan nan nan nan nan nan nan nan nan 60 61 62 62 61 61 59 59 57 56 50 51 56 56 57 nan nan nan nan nan nan nan nan nan nan nan 64 nan nan nan nan nan nan
nan nan nan nan nan nan nan nan nan nan nan nan nan nan nan nan nan nan nan nan nan nan nan nan nan nan nan nan nan nan nan nan nan nan nan nan nan nan nan nan nan nan nan nan nan nan nan nan nan nan nan nan nan 63 64 66 66 66 64 61 59 56 56 49 49 54 nan nan nan nan nan nan nan nan nan nan nan 60 61 nan nan nan nan nan nan
nan nan nan nan nan nan nan nan nan nan nan nan nan nan nan nan nan nan nan nan nan nan nan nan nan nan nan nan nan nan nan nan nan nan nan nan nan nan nan nan nan nan nan nan nan nan nan nan nan nan nan nan nan 64 66 68 69 68 66 65 65 65 62 59 nan nan 56 nan nan nan nan nan nan nan nan nan nan nan nan nan nan nan nan nan nan
nan nan nan nan nan nan nan nan nan nan nan nan nan nan nan nan nan nan nan nan nan nan nan nan nan nan nan nan nan nan nan nan nan nan nan nan nan nan nan nan nan nan nan nan nan nan nan nan nan nan nan nan nan 63 64 66 66 68 68 66 66 67 66 63 nan nan nan nan nan nan nan nan nan nan nan nan nan nan nan nan nan nan nan nan nan
nan nan nan nan nan nan nan nan nan nan nan nan nan nan nan nan nan nan nan nan nan nan nan nan nan nan nan nan nan nan nan nan nan nan nan nan nan nan nan nan nan nan nan nan nan nan nan nan nan nan nan nan nan nan nan nan nan 63 67 64 nan nan nan nan 61 nan nan nan nan nan nan nan nan nan nan nan nan nan nan nan nan nan nan nan nan
nan nan nan nan nan nan nan nan nan nan nan nan nan nan nan nan nan nan nan nan nan nan nan nan nan nan nan nan nan nan nan nan nan nan nan nan nan nan nan nan nan nan nan nan nan nan nan nan nan nan nan nan nan nan nan nan nan nan 63 nan nan nan nan nan nan nan nan nan nan nan nan nan nan nan nan nan nan nan nan nan nan nan nan nan nan
nan nan nan nan nan nan nan nan nan nan nan nan nan nan nan nan nan nan nan nan nan nan nan nan nan nan nan nan nan nan nan nan nan nan nan nan nan nan nan nan nan nan nan nan nan nan nan nan nan nan nan nan nan nan nan nan 56 58 60 nan nan nan nan nan nan nan nan nan nan nan nan nan nan nan nan nan nan nan nan nan nan nan nan nan nan
Wind_Direction
283 282 285 287 291 296 294 288 280 273 265 265 260 257 262 251 254 259 262 273 281 282 286 287 280 285 279 290 288 292 302 304 302 303 304 309 312 313 311 311 308 307 298 305 313 314 312 305 304 304 300 298 292 302 322 310 330 320 315 319 320 313 296 298 287 287 nan 264 265 268 262 276 262 257 287 287 260 229 252 262 256 255 246 251 247
275 274 280 284 284 284 276 267 267 270 258 259 262 264 276 264 259 269 264 268 281 287 294 294 292 294 290 295 286 290 288 288 290 294 300 300 300 298 296 298 302 305 305 303 306 308 309 306 313 328 326 317 321 317 319 327 333 327 313 312 336 322 306 319 330 nan nan 281 279 264 256 252 265 275 262 255 267 276 269 263 257 267 261 257 247
281 275 272 273 264 250 238 243 246 246 255 261 272 272 280 276 279 282 275 273 280 285 288 286 279 276 270 280 285 279 280 293 295 297 292 286 285 289 296 300 304 306 307 304 303 299 303 311 313 324 336 324 323 336 326 330 337 335 330 322 316 296 288 297 323 288 nan 286 267 265 270 269 250 248 243 235 257 277 256 265 282 277 272 264 250
289 282 264 247 243 249 246 249 249 256 261 264 272 286 292 290 289 287 280 273 274 277 281 282 281 282 274 275 276 280 285 281 279 278 278 282 284 290 295 303 306 307 309 307 307 306 312 315 312 319 336 337 340 341 339 337 334 333 327 308 309 306 301 290 267 271 nan 295 266 274 287 280 275 267 274 265 238 274 301 299 273 273 276 269 262
277 263 253 254 253 259 263 262 265 269 280 288 289 289 300 299 287 281 273 263 260 272 284 283 282 278 277 278 280 277 268 nan nan 273 277 284 289 292 302 302 314 318 321 321 322 322 324 319 322 325 326 340 332 332 334 334 341 348 328 309 304 305 292 294 279 259 287 281 294 nan nan 269 281 286 285 263 251 245 267 280 282 283 275 263 255
256 259 259 263 273 274 275 279 277 274 275 284 281 278 281 280 273 268 262 252 254 262 275 274 278 nan 290 288 285 280 nan nan nan 281 283 288 296 299 290 287 280 285 313 328 335 335 342 345 336 328 328 327 323 314 306 303 320 335 334 318 308 307 303 293 282 267 263 256 278 283 287 287 290 298 nan nan nan 260 267 265 265 263 266 262 256
264 266 266 270 277 279 277 272 260 253 255 263 267 264 264 270 274 275 275 272 269 267 261 267 270 269 272 280 284 282 276 274 nan nan nan nan 284 283 284 nan 280 nan 286 304 329 342 348 343 340 343 333 326 319 304 298 297 305 307 312 312 312 306 298 291 302 292 266 259 250 255 261 267 280 281 nan nan nan nan nan nan nan 267 269 269 nan
265 265 271 278 282 281 277 270 264 260 262 261 262 262 276 286 290 292 292 298 297 288 278 280 276 268 262 259 259 265 273 273 nan nan nan nan 279 279 279 nan nan 272 280 298 325 327 325 332 337 332 326 317 312 312 308 292 284 284 298 305 304 309 304 300 298 294 290 271 250 249 254 254 257 nan nan nan nan nan nan nan nan nan nan nan nan
269 268 271 277 280 280 280 282 277 273 281 286 278 284 289 292 293 294 300 303 302 305 303 292 282 278 275 274 271 264 271 nan nan nan nan nan nan nan nan nan nan nan nan 306 nan 308 302 290 289 287 300 312 299 300 293 289 279 284 289 288 296 300 296 293 294 300 285 285 267 255 255 255 253 255 263 nan nan nan nan nan nan nan nan nan nan
270 275 280 284 289 289 290 288 284 285 300 304 296 309 316 307 307 307 304 303 307 312 313 309 296 288 285 288 288 287 287 277 nan nan nan nan nan 271 nan nan nan nan nan nan nan nan 282 282 271 269 269 283 284 281 275 275 275 282 277 278 287 288 286 291 292 288 285 285 275 274 266 261 252 248 nan nan nan nan nan nan nan nan nan nan nan
274 277 281 285 286 288 285 285 284 275 287 295 295 306 313 306 310 320 313 302 307 309 311 320 322 320 311 294 283 298 298 288 276 nan nan 264 nan nan nan nan nan nan nan nan nan nan 286 283 nan nan nan 274 274 274 274 281 292 289 290 291 288 285 283 282 279 280 281 280 278 277 276 279 276 nan nan nan nan nan nan nan nan nan nan nan nan
270 269 273 275 274 272 270 273 287 289 283 288 291 300 301 270 235 235 252 269 284 298 nan 318 329 330 320 296 285 303 304 293 nan nan nan nan nan nan nan nan nan nan nan nan nan nan nan nan nan nan nan nan nan nan nan 275 276 273 282 289 285 283 280 278 279 281 278 278 275 273 271 261 nan nan nan nan nan nan nan nan nan nan nan nan nan
270 271 272 271 271 270 272 280 291 291 294 304 305 297 292 284 271 274 274 265 278 300 312 319 323 332 325 301 288 294 295 nan nan nan nan nan nan 285 293 nan nan nan nan nan nan nan nan nan nan nan nan nan nan nan 278 278 274 273 279 283 288 286 287 284 282 276 274 nan nan nan 267 264 260 257 259 nan nan nan nan nan nan nan nan nan nan
274 274 273 272 269 272 279 291 297 281 266 300 301 287 285 302 306 291 285 268 307 308 314 318 323 333 324 301 290 283 282 nan nan nan nan nan nan 295 nan nan nan nan nan nan nan nan 302 316 nan nan nan nan nan nan nan 271 272 280 285 289 291 291 285 280 277 272 265 nan nan nan 258 nan 257 256 261 263 263 nan nan nan nan nan nan nan nan
279 279 283 279 276 279 279 270 266 258 259 264 282 283 285 305 313 304 276 250 254 296 290 301 306 336 319 290 283 279 278 278 nan nan nan nan nan nan nan nan nan nan nan nan nan nan nan nan nan nan nan nan nan nan nan nan 267 273 282 288 283 279 274 268 268 268 263 260 nan nan nan nan 252 251 253 253 256 nan nan nan nan nan nan nan nan
273 276 276 270 266 256 249 256 264 274 276 276 279 277 281 293 293 268 257 260 256 260 260 264 269 313 296 288 286 283 277 nan 267 nan nan nan nan 277 284 nan nan nan nan nan nan nan nan nan nan nan nan nan nan nan nan nan nan 271 272 280 286 281 278 269 263 259 256 254 nan nan nan nan nan 253 252 nan nan nan nan nan nan nan nan nan nan
269 268 268 264 253 251 252 261 270 276 283 287 288 285 285 305 309 288 255 250 261 258 269 264 271 293 283 292 302 297 286 nan nan 269 nan nan nan nan nan nan nan nan nan nan nan nan nan nan nan nan nan nan nan nan nan nan nan nan nan nan nan nan nan nan nan nan nan nan nan nan nan nan nan nan nan nan nan nan nan nan nan nan nan nan nan
260 257 252 237 235 239 247 252 260 272 279 277 284 292 292 302 311 284 269 274 267 266 267 280 289 268 265 290 301 306 295 nan nan nan nan nan nan nan nan nan nan nan nan nan nan nan nan nan nan nan nan nan nan nan nan nan nan nan nan nan nan nan nan nan nan nan nan nan nan nan nan nan nan nan nan nan nan nan nan nan nan nan nan nan nan
265 268 260 233 221 240 254 253 250 255 264 267 275 283 275 276 283 278 280 295 296 276 269 266 265 266 266 275 283 289 297 nan nan nan nan nan nan nan nan nan nan nan nan nan nan nan nan nan nan nan nan nan nan nan nan nan nan nan nan nan nan nan nan nan nan nan nan nan nan nan nan nan nan nan nan nan nan nan nan nan nan nan nan nan nan
257 259 261 234 233 252 258 254 250 247 250 256 262 268 270 278 286 280 281 294 297 287 274 271 273 277 274 274 272 277 298 nan nan nan nan nan nan nan nan nan nan nan nan nan nan nan nan nan nan nan nan nan nan nan nan nan nan nan nan nan nan nan nan nan nan nan nan nan nan nan nan nan nan nan nan nan nan nan nan nan nan nan nan nan nan
255 258 260 259 255 260 261 259 256 252 253 261 267 266 264 276 280 266 276 298 304 299 285 279 277 276 278 276 272 274 289 nan nan nan nan nan nan nan nan nan nan nan nan nan nan nan nan nan nan nan nan nan nan nan nan nan nan nan nan nan nan nan nan nan nan nan nan nan nan nan nan nan nan nan nan nan nan nan nan nan nan nan nan nan nan
261 261 259 257 256 256 256 256 256 261 268 275 263 253 265 270 273 274 277 291 302 300 292 282 276 280 281 278 276 272 280 nan nan nan nan nan nan nan nan nan nan nan nan nan nan nan nan nan nan nan nan nan nan nan nan nan nan nan nan nan nan nan nan nan nan nan nan nan nan nan nan nan nan nan nan nan nan nan nan nan nan nan nan nan nan
262 259 258 258 259 258 257 259 264 268 271 267 261 266 273 276 279 281 290 300 303 294 288 283 281 281 280 279 280 278 276 279 nan nan nan nan nan nan nan nan nan nan nan nan nan nan nan nan nan nan nan nan nan nan nan nan nan nan nan nan nan nan nan nan nan nan nan nan nan nan nan nan nan nan nan nan nan nan nan nan nan nan nan nan nan
262 257 253 255 255 254 256 260 265 268 267 266 267 272 279 286 292 293 296 291 280 281 286 283 283 283 283 283 284 280 278 278 274 267 270 nan nan nan nan nan nan nan nan nan nan nan nan nan nan nan nan nan nan nan nan nan nan nan nan nan nan nan nan nan nan nan nan nan nan nan nan nan nan nan nan nan nan nan nan nan nan nan nan nan nan
246 250 254 255 253 254 260 265 264 266 270 272 278 285 287 289 291 292 288 280 282 282 278 252 241 269 281 276 271 267 266 260 261 255 261 261 nan nan nan nan nan nan nan nan nan nan nan nan nan nan nan nan nan nan nan nan nan nan nan nan nan nan nan nan nan nan nan nan nan nan nan nan nan nan nan nan nan nan nan nan nan nan nan nan nan
240 238 239 241 241 244 249 256 261 265 270 278 281 284 283 283 285 285 284 288 285 276 280 274 252 254 267 263 259 260 256 253 256 258 265 264 264 260 nan nan nan nan nan nan nan nan nan nan nan nan nan nan nan nan nan nan nan nan nan nan nan nan nan nan nan nan nan nan nan nan nan nan nan nan nan nan nan nan nan nan nan nan nan nan nan
nan nan nan nan 246 248 250 251 255 261 269 266 265 264 274 280 282 283 283 285 285 282 281 278 272 279 272 236 232 236 242 222 259 270 265 266 267 265 261 260 nan nan nan nan nan nan nan nan nan nan nan nan nan nan nan nan nan nan nan nan nan nan nan nan nan nan nan nan nan nan nan nan nan nan nan nan nan nan nan nan nan nan nan nan nan
nan nan nan 235 246 250 245 244 250 253 253 264 270 271 272 273 279 291 293 294 299 290 277 280 283 289 277 264 254 282 270 267 257 257 263 262 262 262 264 259 257 254 nan nan nan nan nan nan nan nan nan nan nan nan nan nan nan nan nan nan nan nan nan nan nan nan nan nan nan nan nan nan nan nan nan nan nan nan nan nan nan nan nan nan nan
nan nan nan 248 nan nan nan nan nan nan nan nan nan 283 277 nan nan 285 283 292 nan 281 282 nan 287 278 267 240 235 279 275 253 265 269 261 258 255 252 247 248 251 256 nan nan nan nan nan nan nan nan nan nan nan nan nan nan nan nan nan nan nan nan nan nan nan nan nan nan nan nan nan nan nan nan nan nan nan nan nan nan nan nan nan nan nan
nan nan nan nan nan nan nan nan nan nan nan nan nan nan nan nan nan nan nan nan nan 286 287 287 276 269 266 272 276 275 273 263 261 258 252 246 243 243 239 238 238 240 nan nan nan nan nan nan nan nan nan nan nan nan nan nan nan nan nan nan nan nan nan nan nan nan nan nan nan nan nan 299 nan nan nan nan nan nan nan nan nan nan nan nan nan
257 257 nan nan nan nan nan nan nan nan nan nan nan nan nan nan nan nan nan nan nan 280 nan nan nan 284 285 280 274 272 268 258 254 251 244 245 245 243 238 235 238 239 239 240 244 244 nan nan nan nan nan nan nan nan nan nan nan nan nan nan nan nan nan nan nan nan nan nan nan nan nan nan nan nan nan nan nan nan nan nan nan nan nan nan nan
nan nan nan nan nan nan nan nan nan nan nan nan nan nan nan nan nan nan nan nan nan nan nan nan 267 274 280 280 278 274 270 265 257 254 255 247 238 241 239 236 236 238 235 nan 242 247 247 nan nan nan nan nan nan nan nan nan nan nan nan nan nan nan nan nan nan nan nan nan nan nan nan nan nan nan nan nan nan nan nan nan nan nan nan nan nan
nan nan nan nan nan nan nan nan nan nan nan nan nan nan nan nan nan nan nan nan nan nan nan nan nan nan nan nan 277 283 285 275 268 263 252 244 234 244 248 246 246 249 246 244 246 248 249 251 254 nan nan nan nan nan nan nan nan nan nan nan nan nan nan nan nan nan 290 nan nan nan nan nan nan nan nan nan nan nan nan nan nan nan nan nan nan
nan nan nan nan nan nan nan nan nan nan nan nan nan nan nan nan nan nan nan nan nan nan nan nan nan nan nan nan nan nan nan nan 274 279 279 280 279 274 268 261 257 255 254 252 251 251 252 254 257 259 nan nan nan nan nan nan nan nan nan nan 280 279 283 287 nan nan 293 293 nan nan nan nan nan nan nan nan nan nan nan nan nan nan nan nan nan
nan nan nan nan nan nan nan nan nan nan nan nan nan nan nan nan nan nan nan nan nan nan nan nan nan nan nan nan nan nan nan nan nan nan nan nan 263 270 272 269 267 265 261 258 258 258 255 256 258 260 262 263 nan nan nan nan nan nan nan nan 282 282 285 288 291 293 292 294 nan 291 292 293 289 287 290 nan nan nan nan nan nan nan nan nan nan
nan nan nan nan nan nan nan nan nan nan nan nan nan nan nan nan nan nan nan nan nan nan nan nan nan nan nan nan nan nan nan nan nan nan nan nan nan nan 258 261 265 265 265 265 262 262 261 261 261 262 264 264 265 270 275 279 283 nan nan nan nan 287 288 289 289 288 290 291 291 291 291 290 288 289 nan nan nan nan nan nan nan nan nan nan nan
nan nan nan nan nan nan nan nan nan nan nan nan nan nan nan nan nan nan nan nan nan nan nan nan nan nan nan nan nan nan nan nan nan nan nan nan nan nan nan nan 261 259 261 265 265 264 264 266 265 266 267 265 263 266 270 271 274 nan nan nan nan nan nan 288 290 289 288 288 288 288 nan 286 nan nan nan nan nan nan nan nan nan nan nan nan nan
nan nan nan nan nan nan nan nan nan nan nan nan nan nan nan nan nan nan nan nan nan nan nan nan nan nan nan nan nan nan nan nan nan nan nan nan nan nan nan nan nan nan nan 262 261 259 259 262 266 267 267 266 265 264 270 273 278 283 285 286 nan nan nan nan 289 289 288 288 289 nan 285 nan nan nan nan nan nan nan nan nan nan 285 nan nan 279
nan nan nan nan nan nan nan nan nan nan nan nan nan nan nan nan nan nan nan nan nan nan nan nan nan nan nan nan nan nan nan nan nan nan nan nan nan nan nan nan nan nan nan nan nan 262 258 260 266 267 269 268 267 270 275 280 285 287 288 286 287 287 287 287 nan 288 nan nan nan 290 293 nan nan nan nan 290 292 289 285 285 nan nan nan nan nan
nan nan nan nan nan nan nan nan nan nan nan nan nan nan nan nan nan nan nan nan nan nan nan nan nan nan nan nan nan nan nan nan nan nan nan nan nan nan nan nan nan nan nan nan nan nan nan 264 264 264 263 267 272 277 282 288 288 289 292 288 285 286 288 288 288 289 289 288 nan nan nan nan nan 287 287 291 292 288 282 280 nan nan nan nan nan
nan nan nan nan nan nan nan nan nan nan nan nan nan nan nan nan nan nan nan nan nan nan nan nan nan nan nan nan nan nan nan nan nan nan nan nan nan nan nan nan nan nan nan nan nan nan nan nan nan 269 268 268 273 279 284 289 290 289 289 288 285 287 286 286 287 288 289 290 289 288 nan nan 293 291 288 287 285 280 278 277 278 nan nan nan nan
nan nan nan nan nan nan nan nan nan nan nan nan nan nan nan nan nan nan nan nan nan nan nan nan nan nan nan nan nan nan nan nan nan nan nan nan nan nan nan nan nan nan nan nan nan nan nan nan nan nan 270 273 278 286 283 286 287 286 286 291 287 286 285 nan nan 287 287 287 288 287 287 nan 293 288 284 284 284 282 278 272 273 nan nan nan nan
nan nan nan nan nan nan nan nan nan nan nan nan nan nan nan nan nan nan nan nan nan nan nan nan nan nan nan nan nan nan nan nan nan nan nan nan nan nan nan nan nan nan nan nan nan nan nan nan nan nan nan 276 280 283 288 284 286 288 288 288 290 285 283 285 nan 285 284 284 282 286 nan 284 nan nan nan 276 nan 274 270 nan nan nan nan nan nan
nan nan nan nan nan nan nan nan nan nan nan nan nan nan nan nan nan nan nan nan nan nan nan nan nan nan nan nan nan nan nan nan nan nan nan nan nan nan nan nan nan nan nan nan nan nan nan nan nan nan nan nan 281 284 287 291 286 288 286 288 285 283 271 274 279 283 283 283 nan nan nan nan nan nan nan nan 272 270 270 nan nan nan nan nan nan
nan nan nan nan nan nan nan nan nan nan nan nan nan nan nan nan nan nan nan nan nan nan nan nan nan nan nan nan nan nan nan nan nan nan nan nan nan nan nan nan nan nan nan nan nan nan nan nan nan nan nan nan 281 282 281 283 285 284 285 284 283 283 282 274 276 275 277 nan nan nan nan nan nan nan nan nan nan nan 269 nan nan nan nan nan nan
nan nan nan nan nan nan nan nan nan nan nan nan nan nan nan nan nan nan nan nan nan nan nan nan nan nan nan nan nan nan nan nan nan nan nan nan nan nan nan nan nan nan nan nan nan nan nan nan nan nan nan nan nan 281 280 276 277 279 280 283 285 285 285 283 274 276 nan nan nan nan nan nan nan nan nan nan nan 264 266 nan nan nan nan nan nan
nan nan nan nan nan nan nan nan nan nan nan nan nan nan nan nan nan nan nan nan nan nan nan nan nan nan nan nan nan nan nan nan nan nan nan nan nan nan nan nan nan nan nan nan nan nan nan nan nan nan nan nan nan 279 279 277 279 278 277 278 278 276 280 276 nan nan 276 nan nan nan nan nan nan nan nan nan nan nan nan nan nan nan nan nan nan
nan nan nan nan nan nan nan nan nan nan nan nan nan nan nan nan nan nan nan nan nan nan nan nan nan nan nan nan nan nan nan nan nan nan nan nan nan nan nan nan nan nan nan nan nan nan nan nan nan nan nan nan nan 274 277 281 282 280 278 277 276 276 278 278 nan nan nan nan nan nan nan nan nan nan nan nan nan nan nan nan nan nan nan nan nan
nan nan nan nan nan nan nan nan nan nan nan nan nan nan nan nan nan nan nan nan nan nan nan nan nan nan nan nan nan nan nan nan nan nan nan nan nan nan nan nan nan nan nan nan nan nan nan nan nan nan nan nan nan nan nan nan nan 277 278 277 nan nan nan nan 278 nan nan nan nan nan nan nan nan nan nan nan nan nan nan nan nan nan nan nan nan
nan nan nan nan nan nan nan nan nan nan nan nan nan nan nan nan nan nan nan nan nan nan nan nan nan nan nan nan nan nan nan nan nan nan nan nan nan nan nan nan nan nan nan nan nan nan nan nan nan nan nan nan nan nan nan nan nan nan 273 nan nan nan nan nan nan nan nan nan nan nan nan nan nan nan nan nan nan nan nan nan nan nan nan nan nan
nan nan nan nan nan nan nan nan nan nan nan nan nan nan nan nan nan nan nan nan nan nan nan nan nan nan nan nan nan nan nan nan nan nan nan nan nan nan nan nan nan nan nan nan nan nan nan nan nan nan nan nan nan nan nan nan 275 276 276 nan nan nan nan nan nan nan nan nan nan nan nan nan nan nan nan nan nan nan nan nan nan nan nan nan nan